This is the latest recevied weather packets stored in our database for station/object KF0TNT. If no packets are shown the sender has not sent any weather packets the latest 1 day(s).
| Time | Temp. | Humidity | Pressure | Rain* | Wind** | Luminosity | Snow |
|---|---|---|---|---|---|---|---|
| 1778008154 | 1.67° C | 92% | 1013.9 hPa | 0 mm | 1.79 m/s, 340° | 118 W/m² | - |
| 1778007850 | 1.67° C | 92% | 1014 hPa | 0 mm | 2.24 m/s, 333° | 102 W/m² | - |
| 1778007545 | 1.67° C | 92% | 1013.8 hPa | 0 mm | 1.34 m/s, 359° | 117 W/m² | - |
| 1778007243 | 1.67° C | 92% | 1014 hPa | 0 mm | 1.34 m/s, 345° | 137 W/m² | - |
| 1778006939 | 1.67° C | 93% | 1013.8 hPa | 0 mm | 2.68 m/s, 9° | 168 W/m² | - |
| 1778006636 | 1.67° C | 93% | 1014 hPa | 0 mm | 2.24 m/s, 4° | 176 W/m² | - |
| 1778006333 | 1.67° C | 94% | 1013.9 hPa | 0 mm | 1.79 m/s, 1° | 128 W/m² | - |
| 1778006030 | 1.67° C | 93% | 1014 hPa | 0 mm | 1.79 m/s, 343° | 128 W/m² | - |
| 1778005726 | 1.11° C | 93% | 1014.3 hPa | 0 mm | 2.24 m/s, 359° | 124 W/m² | - |
| 1778005423 | 1.11° C | 92% | 1013.9 hPa | 0 mm | 2.24 m/s, 13° | 120 W/m² | - |
| 1778005120 | 1.11° C | 93% | 1014.4 hPa | 0 mm | 3.13 m/s, 15° | 124 W/m² | - |
| 1778004817 | 1.11° C | 93% | 1014.3 hPa | 0 mm | 2.24 m/s, 16° | 114 W/m² | - |
| 1778004513 | 1.11° C | 93% | 1014.3 hPa | 0.51 mm | 2.24 m/s, 352° | 133 W/m² | - |
| 1778004210 | 1.11° C | 93% | 1014.3 hPa | 0 mm | 2.24 m/s, 5° | 131 W/m² | - |
| 1778003907 | 1.67° C | 94% | 1014.6 hPa | 0 mm | 1.79 m/s, 9° | 129 W/m² | - |
| 1778003603 | 1.11° C | 94% | 1014.4 hPa | 0 mm | 1.79 m/s, 2° | 136 W/m² | - |
| 1778003300 | 1.11° C | 94% | 1014.4 hPa | 0 mm | 2.24 m/s, 358° | 140 W/m² | - |
| 1778002997 | 1.11° C | 94% | 1014.3 hPa | 0 mm | 2.24 m/s, 345° | 127 W/m² | - |
| 1778002693 | 1.11° C | 94% | 1014.4 hPa | 0.51 mm | 1.79 m/s, 348° | 118 W/m² | - |
| 1778002389 | 1.11° C | 94% | 1014.5 hPa | 0 mm | 2.68 m/s, 9° | 127 W/m² | - |
| 1778002092 | 1.11° C | 94% | 1014.6 hPa | 0 mm | 2.24 m/s, 6° | 129 W/m² | - |
| 1778001784 | 1.11° C | 95% | 1014.6 hPa | 0 mm | 2.24 m/s, 334° | 104 W/m² | - |
| 1778001479 | 1.11° C | 95% | 1014.8 hPa | 0 mm | 1.79 m/s, 357° | 91 W/m² | - |
| 1778001176 | 1.11° C | 95% | 1014.8 hPa | 0 mm | 2.68 m/s, 1° | 77 W/m² | - |
| 1778000872 | 0.56° C | 94% | 1014.8 hPa | 0 mm | 2.24 m/s, 16° | 65 W/m² | - |
* Rain latest hour (hover to see other rain measurements)
** Current wind speed in m/s (hover to see current wind gust speed)